• In United Kingdom
  • List of Countries
  • For 7 days
  • Water Temperature
  • Satellite Maps
  • Weather Map
  • Weather Widgets
  • user-avatar
    Login

    Hourly Weather Yulara

    Today, 21 July, Saturday

    Time Temperature Precipitation Wind Pressure Humidity
    00:00 +12°C° 0 mm 4 mps 721 mmHg 43%
    01:00 +11°C° 0 mm 4 mps 721 mmHg 44%
    02:00 +10°C° 0 mm 4 mps 721 mmHg 46%
    03:00 +10°C° 0 mm 4 mps 720 mmHg 48%
    04:00 +8°C° 0 mm 4 mps 720 mmHg 50%
    05:00 +9°C° 0 mm 3 mps 721 mmHg 52%
    06:00 +8°C° 0 mm 3 mps 721 mmHg 54%
    07:00 +10°C° 0 mm 3 mps 721 mmHg 49%
    08:00 +13°C° 0 mm 2 mps 721 mmHg 45%
    09:00 +15°C° 0 mm 2 mps 721 mmHg 39%
    10:00 +18°C° 0 mm 3 mps 721 mmHg 34%
    11:00 +20°C° 0 mm 4 mps 721 mmHg 29%
    12:00 +23°C° 0 mm 4 mps 721 mmHg 24%
    13:00 +25°C° 0 mm 5 mps 720 mmHg 22%
    14:00 +26°C° 0 mm 5 mps 719 mmHg 20%
    15:00 +27°C° 0 mm 6 mps 719 mmHg 18%
    16:00 +25°C° 0 mm 5 mps 718 mmHg 21%
    17:00 +22°C° 0 mm 4 mps 718 mmHg 24%
    18:00 +20°C° 0 mm 3 mps 718 mmHg 27%
    19:00 +19°C° 0 mm 3 mps 718 mmHg 29%
    20:00 +17°C° 0 mm 2 mps 718 mmHg 31%
    21:00 +16°C° 0 mm 2 mps 719 mmHg 34%
    22:00 +16°C° 0 mm 2 mps 719 mmHg 34%
    23:00 +16°C° 0 mm 2 mps 719 mmHg 35%

    Tomorrow, 22 July, Sunday

    Time Temperature Precipitation Wind Pressure Humidity
    00:00 +15°C° 0 mm 2 mps 719 mmHg 35%
    01:00 +15°C° 0 mm 2 mps 719 mmHg 36%
    02:00 +15°C° 0 mm 2 mps 719 mmHg 36%
    03:00 +15°C° 0 mm 2 mps 718 mmHg 37%
    04:00 +13°C° 0 mm 3 mps 718 mmHg 37%
    05:00 +13°C° 0 mm 3 mps 718 mmHg 37%
    06:00 +13°C° 0 mm 3 mps 718 mmHg 37%
    07:00 +16°C° 0 mm 3 mps 719 mmHg 33%
    08:00 +18°C° 0 mm 4 mps 719 mmHg 29%
    09:00 +19°C° 0 mm 4 mps 719 mmHg 25%
    10:00 +22°C° 0 mm 5 mps 719 mmHg 22%
    11:00 +24°C° 0 mm 6 mps 719 mmHg 19%
    12:00 +28°C° 0 mm 7 mps 719 mmHg 15%
    13:00 +28°C° 0 mm 7 mps 718 mmHg 15%
    14:00 +29°C° 0 mm 7 mps 718 mmHg 14%
    15:00 +30°C° 0 mm 7 mps 717 mmHg 13%
    16:00 +28°C° 0 mm 6 mps 717 mmHg 15%
    17:00 +26°C° 0 mm 5 mps 717 mmHg 17%
    18:00 +23°C° 0 mm 4 mps 716 mmHg 19%
    19:00 +22°C° 0 mm 4 mps 717 mmHg 20%
    20:00 +21°C° 0 mm 4 mps 717 mmHg 21%
    21:00 +20°C° 0 mm 5 mps 717 mmHg 22%
    22:00 +19°C° 0 mm 5 mps 717 mmHg 23%
    23:00 +19°C° 0 mm 5 mps 717 mmHg 24%

    Day after tomorrow, 23 July, Monday

    Time Temperature Precipitation Wind Pressure Humidity
    00:00 +17°C° 0 mm 5 mps 717 mmHg 25%
    01:00 +16°C° 0 mm 5 mps 717 mmHg 26%
    02:00 +16°C° 0 mm 5 mps 717 mmHg 27%
    03:00 +15°C° 0 mm 5 mps 716 mmHg 28%
    04:00 +15°C° 0 mm 5 mps 716 mmHg 28%
    05:00 +14°C° 0 mm 5 mps 716 mmHg 29%
    06:00 +14°C° 0 mm 5 mps 716 mmHg 30%
    07:00 +16°C° 0 mm 6 mps 717 mmHg 28%
    08:00 +17°C° 0 mm 7 mps 717 mmHg 25%
    09:00 +20°C° 0 mm 8 mps 718 mmHg 22%
    10:00 +22°C° 0 mm 8 mps 718 mmHg 22%
    11:00 +24°C° 0 mm 7 mps 718 mmHg 22%
    12:00 +27°C° 0 mm 7 mps 718 mmHg 22%
    13:00 +27°C° 0 mm 7 mps 718 mmHg 23%
    14:00 +27°C° 0 mm 6 mps 717 mmHg 25%
    15:00 +27°C° 0 mm 6 mps 717 mmHg 27%
    16:00 +26°C° 0 mm 5 mps 717 mmHg 31%
    17:00 +25°C° 0 mm 5 mps 717 mmHg 34%
    18:00 +22°C° 0 mm 4 mps 717 mmHg 38%
    19:00 +21°C° 0 mm 4 mps 718 mmHg 41%
    20:00 +20°C° 0 mm 4 mps 718 mmHg 43%
    21:00 +19°C° 0 mm 4 mps 718 mmHg 46%
    22:00 +18°C° 0 mm 4 mps 719 mmHg 47%
    23:00 +17°C° 0 mm 4 mps 719 mmHg 48%

    24 July, Tuesday

    Time Temperature Precipitation Wind Pressure Humidity
    00:00 +15°C° 0 mm 4 mps 719 mmHg 49%
    01:00 +15°C° 0 mm 4 mps 719 mmHg 50%
    02:00 +14°C° 0 mm 4 mps 719 mmHg 51%
    03:00 +13°C° 0 mm 3 mps 719 mmHg 52%
    04:00 +13°C° 0 mm 3 mps 719 mmHg 52%
    05:00 +13°C° 0 mm 3 mps 719 mmHg 52%
    06:00 +12°C° 0 mm 3 mps 719 mmHg 53%
    07:00 +13°C° 0 mm 4 mps 720 mmHg 49%
    08:00 +14°C° 0 mm 5 mps 720 mmHg 45%
    09:00 +16°C° 0 mm 5 mps 721 mmHg 41%
    10:00 +17°C° 0 mm 5 mps 721 mmHg 38%
    11:00 +20°C° 0 mm 5 mps 721 mmHg 35%
    12:00 +21°C° 0 mm 5 mps 720 mmHg 32%
    13:00 +22°C° 0 mm 5 mps 720 mmHg 32%
    14:00 +23°C° 0 mm 4 mps 719 mmHg 31%
    15:00 +25°C° 0 mm 4 mps 719 mmHg 30%
    16:00 +22°C° 0 mm 3 mps 718 mmHg 34%
    17:00 +21°C° 0 mm 3 mps 718 mmHg 38%
    18:00 +20°C° 0 mm 2 mps 718 mmHg 41%
    19:00 +19°C° 0 mm 2 mps 719 mmHg 44%
    20:00 +18°C° 0 mm 2 mps 719 mmHg 48%
    21:00 +18°C° 0 mm 1 mps 720 mmHg 51%
    22:00 +17°C° 0 mm 2 mps 720 mmHg 51%
    23:00 +16°C° 0 mm 2 mps 720 mmHg 52%

    25 July, Wednesday

    Time Temperature Precipitation Wind Pressure Humidity
    00:00 +16°C° 0 mm 3 mps 719 mmHg 53%
    01:00 +16°C° 0 mm 3 mps 719 mmHg 54%
    02:00 +14°C° 0 mm 4 mps 719 mmHg 54%
    03:00 +14°C° 0 mm 4 mps 719 mmHg 55%
    04:00 +13°C° 0 mm 4 mps 719 mmHg 56%
    05:00 +12°C° 0 mm 4 mps 719 mmHg 57%
    06:00 +12°C° 0 mm 4 mps 719 mmHg 58%
    07:00 +13°C° 0 mm 5 mps 719 mmHg 54%
    08:00 +15°C° 0 mm 5 mps 719 mmHg 49%
    09:00 +16°C° 0 mm 6 mps 720 mmHg 44%
    10:00 +19°C° 0 mm 5 mps 719 mmHg 38%
    11:00 +22°C° 0 mm 5 mps 719 mmHg 32%
    12:00 +25°C° 0 mm 5 mps 719 mmHg 26%
    13:00 +26°C° 0 mm 5 mps 718 mmHg 24%
    14:00 +27°C° 0 mm 5 mps 717 mmHg 22%
    15:00 +28°C° 0 mm 5 mps 717 mmHg 20%
    16:00 +26°C° 0 mm 4 mps 716 mmHg 24%
    17:00 +24°C° 0 mm 3 mps 716 mmHg 27%
    18:00 +21°C° 0 mm 3 mps 716 mmHg 31%
    19:00 +21°C° 0 mm 2 mps 716 mmHg 33%
    20:00 +20°C° 0 mm 2 mps 717 mmHg 36%
    21:00 +19°C° 0 mm 2 mps 717 mmHg 38%
    22:00 +19°C° 0 mm 2 mps 717 mmHg 39%
    23:00 +18°C° 0 mm 3 mps 717 mmHg 39%

    26 July, Thursday

    Time Temperature Precipitation Wind Pressure Humidity
    00:00 +18°C° 0 mm 3 mps 717 mmHg 40%
    01:00 +18°C° 0 mm 3 mps 717 mmHg 40%
    02:00 +17°C° 0 mm 3 mps 716 mmHg 41%
    03:00 +16°C° 0 mm 3 mps 716 mmHg 41%
    04:00 +16°C° 0 mm 3 mps 716 mmHg 40%
    05:00 +16°C° 0 mm 3 mps 716 mmHg 40%
    06:00 +14°C° 0 mm 3 mps 716 mmHg 39%
    07:00 +17°C° 0 mm 4 mps 717 mmHg 35%
    08:00 +19°C° 0 mm 5 mps 718 mmHg 30%
    09:00 +21°C° 0 mm 6 mps 718 mmHg 25%
    10:00 +22°C° 0 mm 5 mps 718 mmHg 25%
    11:00 +25°C° 0 mm 5 mps 718 mmHg 24%
    12:00 +27°C° 0 mm 5 mps 718 mmHg 24%
    13:00 +27°C° 0 mm 5 mps 717 mmHg 22%
    14:00 +28°C° 0 mm 6 mps 717 mmHg 21%
    15:00 +29°C° 0 mm 7 mps 716 mmHg 20%
    16:00 +27°C° 0 mm 6 mps 716 mmHg 22%
    17:00 +25°C° 0 mm 5 mps 717 mmHg 25%
    18:00 +23°C° 0 mm 4 mps 717 mmHg 27%
    19:00 +21°C° 0 mm 4 mps 717 mmHg 31%
    20:00 +20°C° 0 mm 4 mps 718 mmHg 35%
    21:00 +19°C° 0 mm 5 mps 718 mmHg 39%
    22:00 +17°C° 0 mm 5 mps 718 mmHg 42%
    23:00 +17°C° 0 mm 4 mps 718 mmHg 45%
    Show more